Regional Weather Roundup
Issued by NWS Green Bay, WI

Home | Current Version | Previous Version | Text Only | Print | Product List | Glossary On
Versions: 1 2 3 4 5 6 7 8 9 10 11 12 13 14 15 16 17 18 19 20 21 22 23 24 25 26 27 28 29 30 31 32 33 34 35 36 37 38 39 40 41 42 43 44 45 46 47 48 49 50
000
ASUS43 KGRB 242310
RWRGRB

NORTH-CENTRAL AND NORTHEAST WISCONSIN REGIONAL WEATHER ROUNDUP
NATIONAL WEATHER SERVICE GREEN BAY WI
600 PM CDT FRI OCT 24 2014

WIZ005-009-010>012-018-019-250000-
NORTH CENTRAL WISCONSIN

CITY           SKY/WX    TMP DP  RH WIND       PRES   REMARKS
IRONWOOD       MOCLDY    63  50  63 SW9       29.75S
MANITOWISH WTR CLOUDY    58  49  73 SW14      29.82S
ARBOR VITAE    CLOUDY    59  51  74 SW9       29.83F
EAGLE RIVER    CLOUDY    57  43  59 SW5       29.83F
LAND O LAKES   CLOUDY    58  43  57 S6        29.83F
RHINELANDER    CLOUDY    56  45  66 SW9       29.87S
PHILLIPS       CLOUDY    56  49  77 SW9       29.84F
ANTIGO         CLOUDY    53  49  87 S3        29.88S
TOMAHAWK       CLOUDY    55  47  74 CALM      29.87S
MERRILL        CLOUDY    56  48  74 SW9       29.88R
$$

WIZ013-073-250000-
NORTHEAST WISCONSIN

CITY           SKY/WX    TMP DP  RH WIND       PRES   REMARKS
IRON MOUNTAIN  MOCLDY    56  48  74 SE7       29.84F
MARINETTE      CLEAR     50  46  87 SW8       29.89S
OCONTO         CLEAR     49  49 100 S3        29.90S
$$

WIZ017-030-035>037-045-250000-
CENTRAL WISCONSIN

CITY           SKY/WX    TMP DP  RH WIND       PRES   REMARKS
MEDFORD        CLOUDY    54  49  83 CALM      29.87S
WAUSAU         CLOUDY    56  48  74 S5        29.86F
MOSINEE        CLOUDY    55  52  88 S6        29.89S
MARSHFIELD     CLOUDY    58  51  78 S7        29.88R
WISC RAPIDS    CLOUDY    58  50  75 S5        29.90R
STEVENS POINT  CLOUDY    55  49  81 S5        29.90R
WAUPACA        CLOUDY    56  52  85 SE3       29.90S
SHAWANO        CLOUDY    55  49  82 S3        29.90S
CLINTONVILLE   CLOUDY    54  50  87 S3        29.90S
$$

WIZ038-039-048-051-250000-
FOX VALLEY

CITY           SKY/WX    TMP DP  RH WIND       PRES   REMARKS
NWS GREEN BAY  MOCLDY    52  49  89 S6        29.91S FOG
APPLETON       MOCLDY    52  48  87 VRB5      29.91F
OSHKOSH        CLOUDY    54  50  86 S5        29.91S
FOND DU LAC    CLOUDY    55  50  83 S6        29.91S
$$

WIZ022-050-052-250000-
EAST CENTRAL WISCONSIN

CITY           SKY/WX    TMP DP  RH WIND       PRES   REMARKS
STURGEON BAY   CLEAR     52  46  82 S8        29.92S
MANITOWOC      CLEAR     50  49  96 S6        29.93S FOG
SHEBOYGAN      CLEAR     54  49  83 SE3       29.92S
$$

LMZ563-521-522-541>543-250000-
LAKESHORE

STATION/POSITION TIME  TEMP    WIND        PRES    VSBY  WAVE
                       AIR SEA DIR/SP/G                  HT/PER
                 (UTC) (F)     (DEG/KT/KT) (MB)    (MI)  (FT/S)
SHEBOYGAN LKSHOR 2300   51 51  180/ 12/ 12 1013.9S
KEWAUNEE LKSHORE 2300   50     180/ 12/ 14 1012.3S
ALGOMA MARINA    2200          230/ 17/ 20   N/A
NORTHPORT PIER   2300   50     170/  4/  9 1012.5F
N MID LAKE BUOY  2300   49 51  200/ 16/ 17 1012.9F         2/ 4
SISTER BAY LKSHO 2200          190/  6/  7   N/A
CHAMBERS ISLAND  2300   51     180/  3/  7 1012.9S
MENOMINEE LKSHOR 2300   51     180/  8/ 10 1013.0R
$$



USA.gov is the U.S. government's official web portal to all federal, state and local government web resources and services.